TimeCDT,TemperatureF,Dew PointF,Humidity,Sea Level PressureIn,VisibilityMPH,Wind Direction,Wind SpeedMPH,Gust SpeedMPH,PrecipitationIn,Events,Conditions,WindDirDegrees,DateUTC
12:58 AM,53.1,50.0,89,30.19,10.0,Calm,Calm,-,N/A,,Clear,0,2014-03-09 06:58:00
1:58 AM,52.0,50.0,93,30.17,10.0,Calm,Calm,-,N/A,,Mostly Cloudy,0,2014-03-09 07:58:00
3:58 AM,52.0,50.0,93,30.16,10.0,Calm,Calm,-,0.00,Rain,Light Rain,0,2014-03-09 08:58:00
4:58 AM,52.0,50.0,93,30.18,10.0,Calm,Calm,-,N/A,,Clear,0,2014-03-09 09:58:00
5:58 AM,51.1,48.9,92,30.19,10.0,Calm,Calm,-,N/A,,Clear,0,2014-03-09 10:58:00
6:58 AM,50.0,48.0,93,30.22,10.0,Calm,Calm,-,N/A,,Clear,0,2014-03-09 11:58:00
7:58 AM,52.0,50.0,93,30.23,10.0,Calm,Calm,-,0.00,Rain,Light Rain,0,2014-03-09 12:58:00
8:58 AM,57.0,52.0,83,30.23,10.0,North,4.6,-,0.00,,Clear,360,2014-03-09 13:58:00
9:58 AM,63.0,53.1,70,30.23,10.0,Variable,3.5,-,N/A,,Clear,0,2014-03-09 14:58:00
10:58 AM,68.0,52.0,56,30.22,10.0,NNE,5.8,-,0.00,,Clear,30,2014-03-09 15:58:00
11:58 AM,69.1,48.9,49,30.22,10.0,ENE,3.5,-,0.00,Rain,Light Rain,60,2014-03-09 16:58:00
12:58 PM,70.0,51.1,51,30.20,10.0,SSW,5.8,-,0.00,,Mostly Cloudy,200,2014-03-09 17:58:00
1:58 PM,73.0,50.0,44,30.17,10.0,Variable,3.5,-,0.00,,Clear,0,2014-03-09 18:58:00
2:58 PM,73.9,48.9,41,30.16,10.0,Calm,Calm,-,N/A,,Partly Cloudy,0,2014-03-09 19:58:00
3:58 PM,75.0,46.9,37,30.13,10.0,North,3.5,-,N/A,,Scattered Clouds,350,2014-03-09 20:58:00
4:58 PM,73.9,48.0,40,30.12,10.0,NW,5.8,-,N/A,,Clear,320,2014-03-09 21:58:00
5:58 PM,73.0,48.9,42,30.12,10.0,NNW,3.5,-,N/A,,Clear,330,2014-03-09 22:58:00
6:58 PM,64.0,52.0,65,30.13,10.0,Calm,Calm,-,0.00,,Clear,0,2014-03-09 23:58:00
7:58 PM,59.0,52.0,78,30.14,10.0,Calm,Calm,-,0.00,,Clear,0,2014-03-10 00:58:00
8:58 PM,57.9,52.0,81,30.16,10.0,Calm,Calm,-,N/A,,Clear,0,2014-03-10 01:58:00
9:58 PM,60.1,52.0,75,30.17,10.0,SW,5.8,-,N/A,,Clear,220,2014-03-10 02:58:00
10:58 PM,57.9,52.0,81,30.18,10.0,SW,3.5,-,N/A,,Clear,230,2014-03-10 03:58:00
11:58 PM,55.9,52.0,87,30.17,10.0,Calm,Calm,-,N/A,,Clear,0,2014-03-10 04:58:00
12:58 AM,55.0,51.1,86,30.15,10.0,Calm,Calm,-,N/A,,Clear,0,2014-03-10 05:58:00